TimePST,TemperatureF,Dew PointF,Humidity,Sea Level PressureIn,VisibilityMPH,Wind Direction,Wind SpeedMPH,Gust SpeedMPH,PrecipitationIn,Events,Conditions,WindDirDegrees,DateUTC
12:52 AM,50.0,26.1,39,30.12,10.0,ESE,3.5,-,N/A,,Clear,110,2014-01-02 08:52:00
1:52 AM,50.0,26.1,39,30.12,10.0,ESE,3.5,-,N/A,,Clear,120,2014-01-02 09:52:00
2:52 AM,50.0,26.1,39,30.12,10.0,ESE,3.5,-,N/A,,Clear,110,2014-01-02 10:52:00
3:52 AM,50.0,25.0,38,30.12,10.0,ESE,3.5,-,N/A,,Clear,120,2014-01-02 11:52:00
4:52 AM,50.0,24.1,36,30.12,10.0,ESE,3.5,-,N/A,,Clear,120,2014-01-02 12:52:00
5:52 AM,48.9,24.1,38,30.13,10.0,ESE,3.5,-,N/A,,Clear,110,2014-01-02 13:52:00
6:52 AM,50.0,24.1,36,30.12,10.0,ESE,3.5,-,N/A,,Clear,120,2014-01-02 14:52:00
7:52 AM,51.1,24.1,35,30.14,10.0,ESE,3.5,-,N/A,,Clear,120,2014-01-02 15:52:00
8:52 AM,53.1,26.1,35,30.14,10.0,ESE,3.5,-,N/A,,Clear,110,2014-01-02 16:52:00
9:52 AM,55.0,27.0,34,30.15,10.0,Variable,3.5,-,N/A,,Clear,0,2014-01-02 17:52:00
10:52 AM,55.9,26.1,32,30.14,10.0,SSW,3.5,-,N/A,,Clear,200,2014-01-02 18:52:00
11:52 AM,57.0,24.1,28,30.10,10.0,South,4.6,-,N/A,,Clear,180,2014-01-02 19:52:00
12:52 PM,57.0,28.0,33,30.08,10.0,SW,4.6,-,N/A,,Clear,220,2014-01-02 20:52:00
1:52 PM,57.9,28.0,32,30.06,10.0,South,5.8,-,N/A,,Clear,190,2014-01-02 21:52:00
2:52 PM,57.0,28.9,34,30.06,10.0,South,3.5,-,N/A,,Clear,190,2014-01-02 22:52:00
3:52 PM,57.0,30.0,36,30.05,10.0,Calm,Calm,-,N/A,,Clear,0,2014-01-02 23:52:00
4:52 PM,53.1,30.0,41,30.06,10.0,Calm,Calm,-,N/A,,Clear,0,2014-01-03 00:52:00
5:52 PM,52.0,30.0,43,30.07,10.0,NNE,3.5,-,N/A,,Clear,30,2014-01-03 01:52:00
6:52 PM,52.0,30.9,45,30.07,10.0,NE,4.6,-,N/A,,Clear,40,2014-01-03 02:52:00
7:52 PM,53.1,27.0,37,30.05,10.0,NE,4.6,-,N/A,,Clear,40,2014-01-03 03:52:00
8:52 PM,53.1,25.0,34,30.04,10.0,Calm,Calm,-,N/A,,Clear,0,2014-01-03 04:52:00
9:52 PM,53.1,27.0,37,30.03,10.0,Calm,Calm,-,N/A,,Clear,0,2014-01-03 05:52:00
10:52 PM,51.1,28.0,41,30.04,10.0,Calm,Calm,-,N/A,,Clear,0,2014-01-03 06:52:00
11:52 PM,52.0,26.1,37,30.02,10.0,Calm,Calm,-,N/A,,Clear,0,2014-01-03 07:52:00